Overview Statistics Trail Chart Weather Telemetry Raw packets
 

This is the latest recevied weather packets stored in our database for station/object K4DNM. If no packets are shown the sender has not sent any weather packets the latest 10 day(s).

<< 103 104 105 106 107 108 109 >>
Time Temp. Humidity Pressure Rain* Wind** Luminosity Snow
1787783242 28.89° C 59% 1014.9 hPa 0 mm - 59 W/m² -
1787782943 29.44° C 56% 1014.9 hPa 0 mm - 56 W/m² -
1787782645 29.44° C 55% 1014.9 hPa 0 mm - 49 W/m² -
1787782339 30° C 53% 1014.9 hPa 0 mm - 53 W/m² -
1787782037 30° C 53% 1014.9 hPa 0 mm - 50 W/m² -
1787781736 30.56° C 52% 1015 hPa 0 mm - 50 W/m² -
1787781435 30.56° C 48% 1014.9 hPa 0 mm - 50 W/m² -
1787781132 31.11° C 50% 1015 hPa 0 mm - 57 W/m² -
1787780892 31.67° C 49% 1015.1 hPa 0 mm - 62 W/m² -
1787780529 31.67° C 49% 1015.1 hPa 0 mm - 67 W/m² -
1787780228 31.67° C 49% 1015.1 hPa 0 mm - 75 W/m² -
1787779926 31.11° C 49% 1015.1 hPa 0 mm - 97 W/m² -
1787779624 31.67° C 48% 1015 hPa 0 mm - 165 W/m² -
1787779375 31.67° C 48% 1015 hPa 0 mm - 264 W/m² -
1787779009 31.11° C 48% 1015 hPa 0 mm - 310 W/m² -
1787778705 31.67° C 47% 1014.9 hPa 0 mm - 331 W/m² -
1787778406 31.67° C 47% 1014.9 hPa 0 mm - 355 W/m² -
1787778163 31.67° C 49% 1015 hPa 0 mm - 371 W/m² -
1787777804 31.67° C 49% 1015 hPa 0 mm - 398 W/m² -
1787777504 31.67° C 49% 1015.1 hPa 0 mm - 411 W/m² -
1787777204 31.67° C 50% 1015.2 hPa 0 mm - 445 W/m² -
1787776899 31.11° C 49% 1015.2 hPa 0 mm - 476 W/m² -
1787776661 31.11° C 50% 1015.2 hPa 0 mm - 501 W/m² -
1787776301 31.11° C 50% 1015.4 hPa 0 mm - 536 W/m² -
1787775997 31.11° C 50% 1015.4 hPa 0 mm - 428 W/m² -

* Rain latest hour (hover to see other rain measurements)
** Current wind speed in m/s (hover to see current wind gust speed)